User: anonymous   Login
Location: Unspecified
(51.0950°N, 12.9690°E)
Time: 18:31:06
(UTC+00:00)
Language:

YAOGAN 10 - Orbit

View from above orbital plane
View from above orbital plane
View from above satellite
View from above satellite

Ground track
Ground track

The orbit data is extracted from the following two-line orbital elements,

1 36834U 10038A   22223.11923126  .00000239  00000-0  37454-4 0  9993
2 36834  97.9759 233.6854 0001421  77.5893 282.5491 14.81314352648876
Epoch (UTC): 11 August 2022 02:51:41
Eccentricity: 0.0001421
inclination: 97.9759°
perigee height: 624 km
apogee height: 626 km
right ascension of ascending node: 233.6854°
argument of perigee: 77.5893°
revolutions per day: 14.81314352
mean anomaly at epoch: 282.5491°
orbit number at epoch: 64887

The dashed part of the orbit path shows where the satellite is in the earth's shadow,  

DLR